TimeEST,TemperatureF,Dew PointF,Humidity,Sea Level PressureIn,VisibilityMPH,Wind Direction,Wind SpeedMPH,Gust SpeedMPH,PrecipitationIn,Events,Conditions,WindDirDegrees,DateUTC
12:53 AM,12.9,6.1,74,30.33,10.0,North,9.2,-,0.00,,Overcast,10,2013-12-24 05:53:00
1:16 AM,12.2,6.8,79,30.30,10.0,North,6.9,-,N/A,,Overcast,360,2013-12-24 06:16:00
1:53 AM,10.9,5.0,77,30.34,10.0,North,8.1,-,N/A,,Overcast,10,2013-12-24 06:53:00
2:53 AM,9.0,3.9,80,30.36,7.0,North,5.8,-,0.00,Snow,Light Snow,350,2013-12-24 07:53:00
3:53 AM,8.1,1.9,76,30.38,9.0,North,9.2,-,0.00,Snow,Light Snow,350,2013-12-24 08:53:00
4:53 AM,8.1,3.0,80,30.39,10.0,NNW,6.9,-,0.00,,Overcast,330,2013-12-24 09:53:00
5:09 AM,8.6,3.2,79,30.35,10.0,NNW,6.9,-,N/A,,Overcast,340,2013-12-24 10:09:00
5:38 AM,8.6,1.4,73,30.36,10.0,NW,8.1,-,N/A,,Overcast,320,2013-12-24 10:38:00
5:53 AM,7.0,1.9,80,30.40,10.0,NW,5.8,-,N/A,,Overcast,310,2013-12-24 10:53:00
6:53 AM,3.9,-0.0,84,30.42,10.0,NW,6.9,-,N/A,,Clear,320,2013-12-24 11:53:00
7:53 AM,5.0,-0.0,80,30.43,10.0,WNW,5.8,-,N/A,,Clear,300,2013-12-24 12:53:00
8:53 AM,3.9,-0.0,84,30.46,10.0,WNW,6.9,-,N/A,,Clear,290,2013-12-24 13:53:00
9:53 AM,6.1,-0.9,73,30.48,10.0,NW,4.6,-,N/A,,Clear,320,2013-12-24 14:53:00
10:53 AM,8.1,1.0,73,30.50,10.0,NNW,6.9,-,N/A,,Clear,330,2013-12-24 15:53:00
11:53 AM,10.0,1.9,70,30.49,10.0,NW,6.9,-,N/A,,Clear,310,2013-12-24 16:53:00
12:53 PM,10.9,3.0,70,30.50,10.0,SW,4.6,-,N/A,,Clear,230,2013-12-24 17:53:00
1:53 PM,15.1,1.9,56,30.49,10.0,NW,9.2,-,N/A,,Clear,310,2013-12-24 18:53:00
2:53 PM,15.1,3.0,59,30.50,10.0,West,8.1,-,N/A,,Clear,260,2013-12-24 19:53:00
3:53 PM,14.0,5.0,67,30.52,10.0,WSW,8.1,-,N/A,,Clear,240,2013-12-24 20:53:00
4:53 PM,12.0,3.9,70,30.53,10.0,SW,6.9,-,N/A,,Clear,220,2013-12-24 21:53:00
5:53 PM,9.0,5.0,84,30.55,10.0,SW,5.8,-,N/A,,Clear,220,2013-12-24 22:53:00
6:53 PM,9.0,5.0,84,30.56,10.0,SW,5.8,-,N/A,,Mostly Cloudy,220,2013-12-24 23:53:00
7:53 PM,10.0,6.1,84,30.55,10.0,South,6.9,-,N/A,,Partly Cloudy,190,2013-12-25 00:53:00
8:53 PM,6.1,3.0,87,30.53,10.0,South,6.9,-,N/A,,Clear,170,2013-12-25 01:53:00
9:53 PM,8.1,3.9,83,30.53,10.0,South,4.6,-,N/A,,Clear,190,2013-12-25 02:53:00
10:53 PM,3.9,-0.0,84,30.53,10.0,Calm,Calm,-,N/A,,Clear,0,2013-12-25 03:53:00
11:38 PM,5.0,1.4,85,30.47,10.0,South,8.1,-,N/A,,Mostly Cloudy,170,2013-12-25 04:38:00
11:53 PM,9.0,5.0,84,30.52,10.0,South,5.8,-,N/A,,Overcast,170,2013-12-25 04:53:00